Wind_Speed
17 17 18 18 19 19 19 19 20 20 21 21 22 22 22 23 23 23 24 25 25 25 25 25 25 26 26 26 27 27 27 27 28 29 28 28 27 27
17 17 17 18 18 19 19 19 20 20 20 21 22 23 23 24 24 25 25 25 26 26 26 26 26 27 27 27 27 28 28 28 28 29 29 29 29 28
17 18 18 18 18 19 19 19 19 20 21 21 21 22 23 24 25 25 25 25 26 27 27 27 27 27 27 27 27 27 28 29 29 29 29 30 30 29
18 19 19 20 19 20 20 20 20 20 20 21 22 23 23 24 24 25 25 25 25 26 26 27 27 27 27 28 28 28 29 29 29 29 30 29 30 30
19 20 20 20 20 21 20 20 21 21 21 21 22 22 22 23 24 24 24 24 24 25 26 27 27 27 27 28 28 28 28 29 30 29 30 30 30 30
20 20 20 20 21 21 21 21 21 21 21 21 21 22 22 22 23 24 24 24 24 25 25 26 26 26 26 27 28 29 30 30 30 30 30 30 31 31
20 21 21 21 21 21 22 21 21 21 21 21 21 21 22 22 23 23 24 24 25 25 26 26 26 26 26 26 26 27 28 29 30 30 30 31 31 31
21 21 22 21 21 21 21 21 21 21 21 21 21 22 23 24 24 25 25 25 25 25 26 27 26 26 26 26 27 27 28 29 29 29 29 30 30 30
21 21 22 22 23 22 22 22 22 23 23 23 22 23 24 24 25 25 25 26 26 26 26 26 26 26 27 27 27 28 29 29 30 29 29 30 30 31
21 22 22 23 23 22 22 23 23 24 23 23 23 24 25 25 25 26 26 25 26 26 26 25 25 26 27 27 28 28 28 29 30 31 30 30 31 31
21 22 22 22 22 22 22 23 23 23 23 23 24 24 25 25 26 26 26 26 25 25 26 25 25 26 27 28 28 29 29 30 30 31 31 31 32 32
21 22 22 22 23 23 22 22 23 23 24 24 24 24 25 26 26 26 26 26 26 26 26 26 26 26 26 27 28 28 29 29 30 31 32 32 32 32
21 21 21 21 22 23 22 22 23 23 23 24 24 25 25 25 26 26 26 26 26 26 26 26 26 26 25 26 27 27 28 28 29 30 31 32 32 32
20 20 21 21 21 22 23 23 23 24 24 24 24 24 25 25 25 25 26 25 25 25 24 24 25 25 25 24 23 24 25 26 28 28 29 30 31 31
21 20 20 21 22 22 22 22 23 23 24 24 24 25 25 25 26 26 25 24 23 23 24 25 24 24 24 24 23 24 25 26 27 27 28 29 30 30
22 21 21 21 22 22 22 23 23 23 23 23 23 24 24 24 24 24 24 23 22 23 24 24 24 24 24 24 24 25 26 26 26 27 28 29 29 30
23 23 22 22 22 22 23 23 23 23 23 23 23 23 24 24 23 23 23 23 23 23 24 24 25 25 26 26 26 27 27 27 27 28 29 29 30 31
23 23 23 23 22 23 23 22 22 22 22 22 23 23 22 23 24 24 24 24 25 25 25 26 26 25 25 26 27 27 27 28 28 28 28 29 30 31
23 23 23 23 24 23 23 23 23 23 23 23 22 22 23 23 24 24 24 24 24 25 25 26 26 26 27 27 27 28 28 28 29 29 29 29 30 31
23 23 23 23 24 23 24 25 25 24 24 23 23 23 24 24 24 24 24 25 26 26 27 27 27 27 28 28 28 29 29 29 29 30 30 31 31 32
24 24 24 24 25 25 26 26 26 25 25 24 24 25 25 25 24 24 25 26 27 27 27 27 28 28 28 29 29 29 29 29 30 30 30 31 32 32
24 25 25 25 26 26 27 27 26 26 26 26 26 26 26 25 25 25 25 26 26 27 27 27 27 27 28 28 29 29 29 30 30 31 31 31 32 32
24 25 25 25 25 25 26 25 25 25 26 26 25 25 25 25 25 25 26 26 25 26 26 27 27 28 28 28 29 29 29 30 30 30 31 31 31 32
Wind_Direction
279 277 273 270 269 270 271 271 271 270 269 270 269 269 269 268 268 267 268 268 267 265 264 265 265 265 265 263 262 262 261 260 259 259 256 253 252 254
280 281 279 273 271 271 272 274 274 272 271 272 270 268 269 269 268 268 267 267 267 267 266 266 267 268 266 263 262 262 262 260 260 259 258 256 254 254
282 282 281 278 275 273 274 275 275 274 272 271 270 269 269 269 269 270 271 270 269 269 268 268 268 268 265 264 262 262 261 260 258 258 259 258 255 254
283 283 283 281 277 274 274 273 273 274 274 271 270 270 270 270 271 272 271 272 270 268 268 268 268 268 266 264 263 262 260 259 258 259 260 260 258 255
284 283 283 282 277 274 273 273 273 273 273 273 272 273 273 273 273 272 271 272 272 271 270 269 269 269 269 266 263 262 261 260 259 259 259 259 260 259
284 282 281 281 278 274 273 273 274 274 274 275 276 274 275 276 276 275 274 274 275 274 273 272 271 270 270 268 265 263 262 260 259 258 259 258 259 259
284 283 281 280 278 276 274 274 275 275 276 275 276 277 277 277 277 276 275 277 277 277 275 274 274 270 268 267 265 264 263 261 259 258 258 258 258 259
284 283 281 280 278 276 275 276 276 277 276 275 275 276 276 277 278 276 276 278 278 278 277 275 273 269 269 269 268 266 264 262 260 260 259 258 257 258
283 282 280 278 277 275 275 275 276 277 276 274 274 275 276 278 279 279 279 279 279 279 278 276 272 269 270 270 269 268 265 262 260 260 260 260 260 259
283 282 281 280 278 276 276 275 275 276 276 275 275 276 279 280 280 280 280 280 280 279 279 278 274 271 271 271 270 268 266 263 261 260 261 261 261 260
282 281 280 279 278 278 278 277 277 276 277 276 277 279 280 281 281 280 281 281 279 279 280 278 274 273 273 272 270 269 268 266 264 262 262 264 263 262
284 282 279 279 279 278 279 279 278 277 277 277 279 279 279 280 281 280 281 281 280 280 280 279 277 275 275 275 272 270 269 268 266 264 264 266 266 265
282 282 280 281 280 279 280 281 279 279 279 280 280 280 280 279 280 280 281 280 280 282 282 279 278 278 277 277 275 274 272 270 268 267 267 267 266 266
283 282 281 280 280 280 281 280 280 281 282 282 281 280 281 280 280 280 280 280 280 281 282 281 280 279 278 277 276 275 275 273 271 270 269 268 268 268
282 281 281 281 281 281 283 283 283 283 283 283 283 282 282 283 282 280 281 280 281 282 284 283 282 280 278 277 276 274 275 274 274 274 273 272 271 271
281 279 279 281 284 283 284 285 284 284 284 284 282 282 281 282 285 284 282 281 281 281 282 283 282 281 278 276 276 275 274 274 273 274 274 274 273 272
281 281 281 282 284 285 286 285 284 284 284 283 282 282 280 281 285 285 283 282 282 281 282 282 282 282 279 278 278 277 276 274 274 274 274 274 273 272
280 280 280 281 282 284 285 284 283 284 284 283 282 282 282 281 283 284 282 282 282 281 282 283 283 283 281 280 278 278 276 274 274 275 276 276 275 274
279 279 279 280 282 284 283 284 284 285 285 282 282 282 283 284 285 284 284 284 283 283 284 284 284 283 283 282 281 279 279 276 275 276 278 279 278 276
278 278 279 280 281 281 282 284 285 286 286 283 282 283 285 284 283 285 287 287 285 284 285 286 286 284 283 282 282 282 281 280 279 279 279 280 280 279
279 278 279 280 281 282 282 283 283 285 285 284 283 284 285 284 285 287 289 289 288 286 286 287 288 287 285 284 284 285 284 283 283 283 282 281 281 280
280 281 280 281 282 282 282 282 282 284 284 284 283 283 283 284 286 287 289 290 289 289 289 290 289 289 289 288 287 286 286 285 285 285 284 284 283 282
280 282 283 284 285 285 283 283 284 285 285 284 284 283 283 284 286 287 288 289 290 291 292 292 291 290 290 289 289 288 287 287 286 286 286 285 284 283
Height
5796 5796 5795 5795 5795 5795 5794 5794 5794 5794 5795 5795 5795 5794 5794 5795 5795 5795 5796 5796 5797 5798 5799 5799 5800 5801 5801 5802 5803 5803 5805 5805 5807 5808 5809 5810 5811 5813
5792 5791 5790 5790 5789 5789 5789 5789 5788 5789 5789 5789 5789 5789 5788 5788 5789 5789 5789 5790 5790 5790 5791 5792 5792 5793 5793 5794 5795 5796 5797 5798 5799 5800 5801 5802 5804 5805
5787 5786 5785 5784 5784 5784 5783 5783 5783 5783 5783 5783 5782 5782 5782 5782 5782 5782 5782 5782 5782 5782 5783 5783 5784 5785 5785 5786 5787 5787 5788 5789 5791 5792 5793 5794 5795 5797
5782 5781 5780 5779 5779 5778 5778 5778 5777 5777 5777 5777 5776 5776 5776 5776 5775 5775 5775 5775 5775 5775 5775 5776 5776 5776 5777 5778 5778 5779 5780 5781 5782 5784 5785 5786 5787 5788
5777 5776 5775 5774 5773 5773 5772 5772 5772 5771 5771 5771 5770 5770 5769 5769 5769 5768 5768 5768 5768 5767 5768 5768 5768 5768 5769 5769 5769 5770 5771 5773 5774 5775 5776 5777 5779 5780
5771 5770 5769 5768 5767 5767 5766 5766 5766 5765 5765 5764 5764 5763 5763 5762 5762 5762 5761 5761 5761 5760 5760 5760 5760 5760 5760 5760 5761 5762 5762 5764 5765 5766 5768 5769 5770 5771
5765 5764 5763 5762 5761 5761 5760 5760 5759 5759 5758 5758 5758 5757 5757 5756 5756 5755 5754 5754 5753 5753 5753 5752 5752 5752 5752 5752 5752 5753 5754 5755 5756 5757 5759 5760 5761 5762
5759 5758 5757 5756 5755 5755 5754 5754 5753 5753 5752 5752 5752 5751 5751 5750 5749 5748 5748 5747 5747 5746 5745 5745 5744 5744 5744 5744 5745 5745 5746 5746 5747 5748 5750 5751 5752 5754
5753 5752 5751 5750 5749 5748 5748 5747 5747 5746 5746 5746 5745 5745 5744 5743 5742 5742 5741 5740 5739 5738 5737 5737 5736 5736 5736 5736 5736 5737 5737 5738 5739 5740 5741 5742 5743 5745
5746 5745 5745 5744 5743 5742 5741 5741 5740 5740 5739 5739 5738 5738 5737 5736 5735 5734 5733 5732 5731 5730 5729 5729 5729 5728 5728 5728 5728 5728 5728 5729 5730 5731 5732 5733 5735 5736
5740 5739 5738 5737 5737 5736 5735 5734 5734 5733 5732 5732 5731 5731 5730 5729 5727 5727 5726 5725 5724 5723 5722 5721 5721 5721 5720 5719 5719 5719 5719 5720 5721 5722 5723 5724 5725 5726
5734 5732 5731 5730 5730 5729 5728 5728 5727 5727 5726 5725 5724 5723 5722 5721 5720 5719 5718 5718 5717 5716 5715 5714 5714 5713 5713 5712 5711 5710 5711 5711 5712 5713 5714 5714 5715 5716
5727 5726 5725 5724 5723 5722 5721 5721 5720 5720 5719 5718 5717 5716 5715 5714 5713 5712 5711 5710 5709 5709 5708 5707 5706 5705 5705 5704 5703 5702 5702 5702 5703 5704 5704 5705 5705 5706
5721 5720 5719 5717 5717 5716 5715 5714 5713 5713 5712 5711 5710 5709 5708 5707 5706 5705 5704 5703 5702 5701 5700 5699 5699 5698 5697 5697 5696 5695 5695 5694 5694 5695 5695 5695 5696 5696
5715 5714 5713 5712 5710 5710 5709 5708 5707 5706 5705 5704 5703 5702 5701 5700 5699 5698 5697 5696 5695 5694 5693 5692 5692 5691 5690 5689 5689 5688 5688 5687 5686 5686 5686 5686 5686 5686
5708 5707 5706 5705 5704 5703 5703 5701 5700 5699 5698 5697 5696 5695 5693 5693 5692 5691 5690 5689 5688 5688 5686 5685 5684 5683 5682 5682 5681 5681 5680 5679 5679 5678 5678 5677 5677 5676
5701 5700 5700 5699 5698 5697 5696 5694 5693 5692 5691 5690 5689 5688 5687 5686 5685 5684 5683 5682 5681 5681 5680 5678 5677 5676 5675 5674 5673 5673 5672 5671 5670 5669 5669 5668 5668 5667
5694 5694 5693 5692 5691 5690 5689 5688 5686 5685 5684 5683 5682 5681 5680 5679 5678 5677 5676 5675 5674 5673 5672 5670 5669 5668 5667 5666 5665 5664 5663 5662 5661 5660 5659 5659 5658 5657
5687 5686 5686 5685 5684 5683 5682 5681 5680 5678 5677 5676 5675 5674 5673 5672 5671 5670 5669 5668 5667 5666 5664 5662 5661 5660 5659 5658 5657 5655 5654 5653 5652 5651 5650 5649 5648 5647
5680 5679 5679 5678 5677 5676 5675 5674 5673 5671 5670 5669 5668 5667 5666 5665 5664 5663 5661 5660 5659 5657 5655 5654 5652 5651 5650 5649 5648 5646 5644 5643 5642 5641 5640 5639 5638 5637
5673 5672 5671 5670 5670 5668 5667 5666 5665 5664 5663 5662 5660 5659 5658 5657 5656 5655 5653 5652 5650 5648 5647 5645 5643 5642 5640 5640 5639 5638 5635 5633 5632 5631 5630 5629 5627 5626
5666 5665 5664 5663 5662 5660 5659 5658 5657 5656 5654 5653 5652 5651 5650 5649 5648 5647 5645 5644 5642 5640 5638 5636 5635 5633 5631 5630 5629 5627 5626 5624 5622 5620 5619 5618 5616 5616
5658 5657 5656 5655 5653 5652 5651 5649 5648 5647 5645 5644 5644 5642 5641 5640 5639 5638 5637 5636 5634 5632 5630 5628 5626 5624 5622 5621 5619 5617 5616 5614 5612 5611 5609 5607 5606 5605